Retour au catalogue

BANGABANDHUSAT-1

ActifCommunicationsGEO
NORAD 43463·PAYLOAD·🇧🇩 Bangladesh

Lancé May 11, 2018 depuis Cape Canaveral Space Force Station

Loading…

TLE

FraisSource: Space-Track

Époque: Sep 14, 2026, 10:56 UTC

1 43463U 18044A   26257.45613130 -.00000371  00000-0  00000-0 0  9994
2 43463   0.0260 113.4730 0002307  67.2784  95.9975  1.00271520 30606

Suivez BANGABANDHUSAT-1 en temps réel avec AllMySat

Download on the App Store